Location: Waco, TX
(31.5480°N, 97.1670°W)
Time: 03:00:38
(UTC-05:00)

ISS - Pass Details

Date: 16 September 2017
Orbit: 401 x 407 km, 51.6° (Epoch: 22 September)

Event Time Altitude Azimuth Distance (km) Brightness Sun altitude
Rises 06:47:34 0° 331° (NNW) 2,330 -0.2 -6.3°
Reaches altitude 10° 06:50:14 10° 354° (N) 1,467 -1.0 -5.8°
Maximum altitude 06:52:23 16° 35° (NE) 1,151 -0.9 -5.3°
Drops below altitude 10° 06:54:31 10° 76° (ENE) 1,462 0.8 -4.9°
Sets 06:57:10 0° 99° (E) 2,318 2.0 -4.3°
